星链-6256 (STARLINK-6256 )

导读 | 豆包AI

STARLINK-6256是美国SpaceX星链(Starlink)项目的卫星,于2023年5月4日发射入轨,属于星链星座组网的一员。该卫星旨在为全球提供低延迟、高速率的宽带互联网服务,尤其覆盖偏远地区等网络基础设施薄弱区域,进一步完善星链低轨巨型星座的服务覆盖能力。

基本信息
目录编号:
56401
目录名称:
STARLINK-6256
国际标识:
2023-061AD
轨道中心:
EARTH
卫星名称:
星链-6256
卫星全名:
星链-6256 (STARLINK-6256 )
卫星状态:
已陨落 最后检测时间 2026-04-13
发射日期:
2023-05-04 UTC
国别 :
美国 (US)
星等 :
--
轨道信息
数据来源 国际轨道数据
星历时间: 2026-04-13T04:34:50+0800
轨道信息已过期17天
半长轴: 6540.905km
偏心率: 0.0005051
轨道倾角: 42.973°
近地点辐角 286.364°
升交点赤经 251.812°
平近点角 73.669°
近地点: 159.464km
远地点: 166.072km
周期: 87.744分钟
每日圈数: 16.411414
详细信息
固有亮度:
5
最大亮度:
2.5
卫星平台:
Starlink v1.5
覆盖范围:
全球
运营商:
太空探索技术公司
运营商所在国:
美国
制造商(研发单位):
太空探索技术公司
制造商所在国:
美国
使用方式:
暂无
卫星简介
星链(Starlink)计划是由太空探索技术公司(SpaceX)提出的一个巨型低轨卫星互联网星座项目,计划在2019年至2024年间在太空搭建由约1.2万颗卫星组成的“星链”网络,其中1584颗将部署在地球上空550千米处的近地轨道,并从2020年开始工作。该卫星仍在工作。